Reeve, Wisconsin
Current Conditions -  °F | °C
As of 4:15 AM on Wednesday 26 Nov 2014 (Local Time) from KUBE Reporting Station
Overcast Overcast  
Wind Chill: 21°   Ceiling: 5500
Heat Index: 21°   Visibility: 10mi
Dew Point: 16°   Wind: 3mph
Humidity: 80%   Direction: 100°E
Pressure: 30.06"   Gusts: NA
Location:  45.3064°N, 92.1345°W
Report Text: KUBE 261015Z AUTO 10003KT 10SM OVC055 M06/M09 A3006 RMK AO2
Loading
Personal Weather Stations






























Interactive Weather Map New forecast layout! Learn more

10-Day Weather Forecast

Advertisements
Track Severe Weather on mobile